This is the latest recevied weather packets stored in our database for station/object WE8M. If no packets are shown the sender has not sent any weather packets the latest 10 day(s).
| Time | Temp. | Humidity | Pressure | Rain* | Wind** | Luminosity | Snow |
|---|---|---|---|---|---|---|---|
| 1777573881 | 12.78° C | 52% | 1016.4 hPa | 0 mm | - | - | - |
| 1777573577 | 12.78° C | 50% | 1016.3 hPa | 0 mm | - | - | - |
| 1777573274 | 12.22° C | 56% | 1016.4 hPa | 0 mm | - | - | - |
| 1777572970 | 12.78° C | 52% | 1016.1 hPa | 0 mm | - | - | - |
| 1777572666 | 12.22° C | 54% | 1016.1 hPa | 0 mm | - | - | - |
| 1777572365 | 12.22° C | 54% | 1016.3 hPa | 0 mm | - | - | - |
| 1777572062 | 12.22° C | 60% | 1016.1 hPa | 0 mm | - | - | - |
| 1777571761 | 12.22° C | 62% | 1016.2 hPa | 0 mm | - | - | - |
| 1777571459 | 12.22° C | 57% | 1016.5 hPa | 0 mm | - | - | - |
| 1777571155 | 12.22° C | 60% | 1016.4 hPa | 0 mm | - | - | - |
| 1777570851 | 11.11° C | 63% | 1016.5 hPa | 0 mm | - | - | - |
| 1777570547 | 11.67° C | 66% | 1016.6 hPa | 0 mm | - | - | - |
| 1777570245 | 11.67° C | 65% | 1016.5 hPa | 0 mm | - | - | - |
| 1777569944 | 12.22° C | 63% | 1016.5 hPa | 0 mm | - | - | - |
| 1777569641 | 12.22° C | 60% | 1016.7 hPa | 0 mm | - | - | - |
| 1777569337 | 11.67° C | 71% | 1016.7 hPa | 0 mm | - | - | - |
| 1777569033 | 11.11° C | 69% | 1016.6 hPa | 0 mm | - | - | - |
| 1777568730 | 11.11° C | 68% | 1016.8 hPa | 0 mm | - | - | - |
| 1777568428 | 11.11° C | 67% | 1016.8 hPa | 0 mm | - | - | - |
| 1777568125 | 10.56° C | 66% | 1016.7 hPa | 0 mm | - | - | - |
| 1777567821 | 11.11° C | 63% | 1017 hPa | 0 mm | - | - | - |
| 1777567517 | 11.11° C | 62% | 1016.9 hPa | 0 mm | - | - | - |
| 1777567215 | 11.67° C | 60% | 1016.8 hPa | 0 mm | - | - | - |
| 1777566913 | 11.11° C | 62% | 1016.8 hPa | 0 mm | - | - | - |
| 1777566611 | 10.56° C | 62% | 1016.9 hPa | 0 mm | - | - | - |
* Rain latest hour (hover to see other rain measurements)
** Current wind speed in m/s (hover to see current wind gust speed)